Weather History for Cold Bay, AK

Change the Weather History Date:

Monday, October 21, 2013

  Actual Average Record
Temperature  
Mean Temperature 43 °F 39 °F  
Max Temperature 50 °F 44 °F 54 °F (1981)
Min Temperature 35 °F 34 °F 21 °F (2008)
Degree Days  
Heating Degree Days 22 26  
Month to date heating degree days 377 491  
Since 1 July heating degree days 1506 1842  
Cooling Degree Days 0    
Month to date cooling degree days 0  
Year to date cooling degree days 0  
Moisture  
Dew Point 33 °F    
Average Humidity 72    
Maximum Humidity 83    
Minimum Humidity 35    
Precipitation  
Precipitation 0.03 in 0.15 in 1.13 in (1995)
Month to date precipitation 3.35 3.27  
Year to date precipitation 35.18 30.74  
Snow  
Snow 0.00 in 0.10 in 2.70 in (1977)
Month to date snowfall 0.0 1.0  
Since 1 July snowfall 0.0 1.0  
Since 1 September snowfall 0.0 1.0  
Snow Depth 0.00 in    
Sea Level Pressure  
Sea Level Pressure 29.86 in    
Wind  
Wind Speed 9 mph (SSW)    
Max Wind Speed 22 mph    
Max Gust Speed 26 mph    
Visibility 10 miles    
Events Rain    
T = Trace of Precipitation, MM = Missing Value Source: NWS Daily Summary

Daily Weather History Graph

Daily Weather History Graph

Search for Another Location

Airport:

Trip Planner

Search our weather history database for the weather conditions in past years. The results will help you decide how hot, cold, wet, or windy it might be!

Date:

Astronomy

Oct. 21, 2013 Rise Set
Actual Time 9:33 AM AKDT 7:36 PM AKDT
Civil Twilight 8:56 AM AKDT 8:13 PM AKDT
Nautical Twilight 8:13 AM AKDT 8:55 PM AKDT
Astronomical Twilight 7:31 AM AKDT 9:37 PM AKDT
Moon 9:11 PM AKDT (10/21) 12:45 PM AKDT (10/21)
Length of Visible Light 11h 17m
Length of Day
10h 02m
Waning Gibbous, 92% of the Moon is Illuminated
Oct 21
Waning Gibbous
Oct 26
Last Quarter
Nov 3
New
Nov 9
First Quarter
Nov 17
Full

Hourly Weather History & Observations

Time (AKDT) Temp. Windchill Dew Point Humidity Pressure Visibility Wind Dir Wind Speed Gust Speed Precip Events Conditions
12:53 AM 37.0 °F 31.0 °F 30.9 °F 79% 29.76 in 10.0 mi WSW 8.1 mph - N/A   Clear
1:53 AM 37.9 °F 30.5 °F 33.1 °F 83% 29.77 in 10.0 mi WSW 11.5 mph - N/A   Mostly Cloudy
2:53 AM 37.9 °F 30.9 °F 33.1 °F 83% 29.79 in 10.0 mi WSW 10.4 mph - N/A   Overcast
3:53 AM 37.0 °F 29.8 °F 32.0 °F 82% 29.79 in 10.0 mi WSW 10.4 mph - N/A   Mostly Cloudy
4:53 AM 36.0 °F 29.0 °F 30.9 °F 82% 29.81 in 10.0 mi SW 9.2 mph - N/A   Scattered Clouds
5:12 AM 37.4 °F 30.3 °F 32.0 °F 81% 29.80 in 10.0 mi SW 10.4 mph - N/A   Mostly Cloudy
5:24 AM 37.4 °F 30.3 °F 32.0 °F 81% 29.81 in 10.0 mi SW 10.4 mph - N/A   Mostly Cloudy
5:53 AM 37.0 °F 31.0 °F 30.9 °F 79% 29.81 in 10.0 mi WSW 8.1 mph - N/A   Mostly Cloudy
6:53 AM 37.0 °F 29.3 °F 30.9 °F 79% 29.82 in 10.0 mi WSW 11.5 mph - N/A   Scattered Clouds
7:53 AM 37.9 °F 30.9 °F 32.0 °F 79% 29.84 in 10.0 mi SW 10.4 mph - N/A   Scattered Clouds
8:53 AM 37.0 °F 30.4 °F 30.0 °F 76% 29.85 in 10.0 mi WSW 9.2 mph - N/A   Scattered Clouds
9:53 AM 39.0 °F 36.8 °F 30.9 °F 73% 29.87 in 10.0 mi West 3.5 mph - N/A   Mostly Cloudy
10:53 AM 39.9 °F - 30.0 °F 68% 29.89 in 10.0 mi Calm Calm - N/A   Mostly Cloudy
11:53 AM 44.1 °F 42.5 °F 32.0 °F 63% 29.89 in 10.0 mi ESE 3.5 mph - N/A   Mostly Cloudy
12:53 PM 45.0 °F 41.8 °F 33.1 °F 63% 29.90 in 10.0 mi SE 5.8 mph - N/A   Mostly Cloudy
1:53 PM 46.9 °F - 30.9 °F 54% 29.91 in 10.0 mi Variable 3.5 mph - N/A   Scattered Clouds
2:53 PM 48.0 °F - 30.9 °F 52% 29.90 in 10.0 mi ENE 3.5 mph - N/A   Scattered Clouds
3:53 PM 48.0 °F - 28.9 °F 48% 29.90 in 10.0 mi ENE 3.5 mph - N/A   Scattered Clouds
4:53 PM 46.0 °F 40.2 °F 33.1 °F 61% 29.90 in 10.0 mi SSE 12.7 mph - N/A   Mostly Cloudy
5:53 PM 46.0 °F 38.8 °F 35.1 °F 66% 29.90 in 10.0 mi SSE 18.4 mph 25.3 mph N/A   Clear
6:53 PM 44.1 °F 37.4 °F 36.0 °F 73% 29.91 in 10.0 mi SSE 13.8 mph - N/A   Scattered Clouds
7:53 PM 41.0 °F 34.3 °F 34.0 °F 76% 29.91 in 10.0 mi SSE 11.5 mph - 0.01 in   Clear
8:53 PM 41.0 °F 34.3 °F 36.0 °F 82% 29.91 in 10.0 mi SSE 11.5 mph - N/A   Scattered Clouds
9:53 PM 42.1 °F 34.2 °F 36.0 °F 79% 29.91 in 10.0 mi SE 16.1 mph - N/A   Scattered Clouds
10:53 PM 41.0 °F 33.9 °F 35.1 °F 79% 29.91 in 5.0 mi South 12.7 mph 26.5 mph 0.01 in Rain Rain
11:06 PM 42.8 °F 34.0 °F 35.6 °F 76% 29.90 in 9.0 mi South 20.7 mph 24.2 mph 0.00 in Rain Light Rain
11:53 PM 43.0 °F 36.8 °F 36.0 °F 76% 29.91 in 10.0 mi SE 11.5 mph - 0.00 in   Mostly Cloudy